When you browse on this site, cookies collect data to enhance your experience and personalize the content and advertising you see.
Visit our Privacy Policy to learn more. By continuing to use the site, you agree to this use of cookies and data.
  • In Hungary
  • List of Countries
  • For 7 days
  • Water Temperature
  • Satellite Maps
  • Weather Map
  • News
  • Weather Widgets
  • user-avatar
    Login

    Hourly Weather Viznya

    Today, 20 July, Saturday

    Time Temperature Precipitation Wind Pressure Humidity
    00:00 +16°C° 0 mm 2 mps 748 mmHg 87%
    01:00 +16°C° 0 mm 2 mps 748 mmHg 88%
    02:00 +15°C° 0 mm 2 mps 748 mmHg 89%
    03:00 +15°C° 0 mm 2 mps 748 mmHg 90%
    04:00 +15°C° 0 mm 2 mps 749 mmHg 90%
    05:00 +15°C° 0 mm 2 mps 749 mmHg 90%
    06:00 +17°C° 0 mm 2 mps 749 mmHg 83%
    07:00 +19°C° 0 mm 2 mps 749 mmHg 76%
    08:00 +21°C° 0 mm 2 mps 749 mmHg 70%
    09:00 +23°C° 0 mm 2 mps 749 mmHg 63%
    10:00 +24°C° 0 mm 2 mps 750 mmHg 57%
    11:00 +26°C° 0 mm 2 mps 750 mmHg 51%
    12:00 +26°C° 0 mm 2 mps 750 mmHg 50%
    13:00 +26°C° 0 mm 2 mps 750 mmHg 49%
    14:00 +27°C° 0 mm 2 mps 750 mmHg 48%
    15:00 +26°C° 0 mm 2 mps 749 mmHg 55%
    16:00 +24°C° 0 mm 2 mps 749 mmHg 63%
    17:00 +23°C° 0 mm 2 mps 749 mmHg 70%
    18:00 +21°C° 0 mm 2 mps 749 mmHg 72%
    19:00 +21°C° 0 mm 1 mps 749 mmHg 74%
    20:00 +20°C° 0 mm 1 mps 749 mmHg 75%
    21:00 +20°C° 0 mm 1 mps 749 mmHg 78%
    22:00 +19°C° 0 mm 1 mps 749 mmHg 81%
    23:00 +18°C° 0 mm 1 mps 749 mmHg 84%

    Tomorrow, 21 July, Sunday

    Time Temperature Precipitation Wind Pressure Humidity
    00:00 +18°C° 0 mm 1 mps 749 mmHg 85%
    01:00 +18°C° 0 mm 1 mps 749 mmHg 87%
    02:00 +16°C° 0 mm 1 mps 749 mmHg 89%
    03:00 +16°C° 0 mm 1 mps 749 mmHg 90%
    04:00 +16°C° 0 mm 1 mps 749 mmHg 91%
    05:00 +16°C° 0 mm 1 mps 749 mmHg 91%
    06:00 +19°C° 0 mm 1 mps 749 mmHg 85%
    07:00 +21°C° 0 mm 1 mps 749 mmHg 80%
    08:00 +23°C° 0 mm 1 mps 749 mmHg 74%
    09:00 +24°C° 0 mm 1 mps 749 mmHg 69%
    10:00 +26°C° 0 mm 1 mps 749 mmHg 64%
    11:00 +27°C° 0 mm 1 mps 749 mmHg 58%
    12:00 +27°C° 0.1 mm 1 mps 749 mmHg 57%
    13:00 +28°C° 0.1 mm 2 mps 749 mmHg 55%
    14:00 +28°C° 0.1 mm 2 mps 749 mmHg 53%
    15:00 +28°C° 0.1 mm 2 mps 749 mmHg 55%
    16:00 +28°C° 0.1 mm 1 mps 748 mmHg 57%
    17:00 +28°C° 0.1 mm 1 mps 748 mmHg 59%
    18:00 +26°C° 0.2 mm 1 mps 748 mmHg 65%
    19:00 +24°C° 0.2 mm 1 mps 748 mmHg 71%
    20:00 +23°C° 0.2 mm 1 mps 748 mmHg 77%
    21:00 +22°C° 0 mm 1 mps 748 mmHg 80%
    22:00 +21°C° 0 mm 1 mps 748 mmHg 82%
    23:00 +21°C° 0 mm 1 mps 748 mmHg 85%

    Day after tomorrow, 22 July, Monday

    Time Temperature Precipitation Wind Pressure Humidity
    00:00 +20°C° 0 mm 1 mps 748 mmHg 86%
    01:00 +20°C° 0 mm 1 mps 748 mmHg 88%
    02:00 +20°C° 0 mm 1 mps 747 mmHg 90%
    03:00 +19°C° 1 mm 2 mps 747 mmHg 92%
    04:00 +19°C° 1 mm 2 mps 747 mmHg 94%
    05:00 +19°C° 1 mm 2 mps 747 mmHg 96%
    06:00 +19°C° 1.3 mm 2 mps 747 mmHg 96%
    07:00 +18°C° 1.3 mm 3 mps 747 mmHg 96%
    08:00 +18°C° 1.3 mm 3 mps 747 mmHg 96%
    09:00 +20°C° 0.3 mm 3 mps 747 mmHg 88%
    10:00 +22°C° 0.3 mm 4 mps 747 mmHg 79%
    11:00 +25°C° 0.3 mm 5 mps 747 mmHg 71%
    12:00 +23°C° 0.4 mm 6 mps 747 mmHg 72%
    13:00 +23°C° 0.4 mm 6 mps 747 mmHg 73%
    14:00 +22°C° 0.4 mm 7 mps 746 mmHg 74%
    15:00 +23°C° 0 mm 7 mps 746 mmHg 72%
    16:00 +23°C° 0 mm 6 mps 746 mmHg 70%
    17:00 +23°C° 0 mm 6 mps 747 mmHg 68%
    18:00 +22°C° 0.1 mm 5 mps 746 mmHg 72%
    19:00 +20°C° 0.1 mm 5 mps 746 mmHg 77%
    20:00 +19°C° 0.1 mm 4 mps 746 mmHg 82%
    21:00 +17°C° 0 mm 5 mps 746 mmHg 83%
    22:00 +17°C° 0 mm 5 mps 746 mmHg 84%
    23:00 +16°C° 0 mm 5 mps 746 mmHg 85%

    23 July, Tuesday

    Time Temperature Precipitation Wind Pressure Humidity
    00:00 +16°C° 0 mm 5 mps 746 mmHg 86%
    01:00 +16°C° 0 mm 5 mps 746 mmHg 86%
    02:00 +16°C° 0 mm 5 mps 746 mmHg 87%
    03:00 +15°C° 0 mm 5 mps 745 mmHg 87%
    04:00 +15°C° 0 mm 5 mps 745 mmHg 88%
    05:00 +14°C° 0 mm 5 mps 745 mmHg 88%
    06:00 +14°C° 0 mm 6 mps 745 mmHg 86%
    07:00 +15°C° 0 mm 6 mps 745 mmHg 84%
    08:00 +15°C° 0 mm 6 mps 745 mmHg 81%
    09:00 +16°C° 0 mm 6 mps 745 mmHg 80%
    10:00 +17°C° 0 mm 6 mps 745 mmHg 79%
    11:00 +17°C° 0 mm 6 mps 745 mmHg 77%
    12:00 +17°C° 0.3 mm 6 mps 745 mmHg 81%
    13:00 +16°C° 0.3 mm 6 mps 744 mmHg 84%
    14:00 +15°C° 0.3 mm 6 mps 744 mmHg 87%
    15:00 +16°C° 0.4 mm 6 mps 744 mmHg 89%
    16:00 +16°C° 0.4 mm 5 mps 744 mmHg 91%
    17:00 +16°C° 0.4 mm 5 mps 744 mmHg 93%
    18:00 +16°C° 0.2 mm 5 mps 744 mmHg 92%
    19:00 +17°C° 0.2 mm 5 mps 744 mmHg 91%
    20:00 +18°C° 0.2 mm 4 mps 744 mmHg 91%
    21:00 +17°C° 0 mm 5 mps 744 mmHg 91%
    22:00 +16°C° 0 mm 5 mps 744 mmHg 92%
    23:00 +16°C° 0 mm 5 mps 744 mmHg 92%

    24 July, Wednesday

    Time Temperature Precipitation Wind Pressure Humidity
    00:00 +16°C° 0 mm 5 mps 744 mmHg 93%
    01:00 +15°C° 0 mm 5 mps 744 mmHg 93%
    02:00 +15°C° 0 mm 5 mps 744 mmHg 94%
    03:00 +15°C° 0 mm 4 mps 744 mmHg 95%
    04:00 +15°C° 0 mm 4 mps 744 mmHg 95%
    05:00 +14°C° 0 mm 4 mps 744 mmHg 96%
    06:00 +17°C° 0 mm 4 mps 745 mmHg 91%
    07:00 +18°C° 0 mm 4 mps 745 mmHg 86%
    08:00 +19°C° 0 mm 5 mps 746 mmHg 81%
    09:00 +21°C° 0 mm 5 mps 746 mmHg 75%
    10:00 +22°C° 0 mm 5 mps 746 mmHg 68%
    11:00 +25°C° 0 mm 5 mps 746 mmHg 61%
    12:00 +25°C° 0 mm 5 mps 746 mmHg 59%
    13:00 +26°C° 0 mm 4 mps 746 mmHg 56%
    14:00 +27°C° 0 mm 4 mps 746 mmHg 53%
    15:00 +27°C° 0 mm 4 mps 746 mmHg 55%
    16:00 +26°C° 0 mm 3 mps 746 mmHg 57%
    17:00 +26°C° 0 mm 3 mps 746 mmHg 59%
    18:00 +24°C° 0 mm 3 mps 746 mmHg 66%
    19:00 +21°C° 0 mm 3 mps 747 mmHg 73%
    20:00 +20°C° 0 mm 2 mps 747 mmHg 80%
    21:00 +19°C° 0 mm 2 mps 747 mmHg 83%
    22:00 +18°C° 0 mm 2 mps 747 mmHg 87%
    23:00 +17°C° 0 mm 2 mps 747 mmHg 90%

    25 July, Thursday

    Time Temperature Precipitation Wind Pressure Humidity
    00:00 +16°C° 0 mm 2 mps 748 mmHg 91%
    01:00 +16°C° 0 mm 2 mps 748 mmHg 91%
    02:00 +16°C° 0 mm 2 mps 748 mmHg 92%
    03:00 +16°C° 0 mm 2 mps 748 mmHg 93%
    04:00 +16°C° 0 mm 2 mps 748 mmHg 93%
    05:00 +16°C° 0 mm 2 mps 748 mmHg 94%
    06:00 +17°C° 0 mm 2 mps 748 mmHg 88%
    07:00 +19°C° 0 mm 3 mps 748 mmHg 83%
    08:00 +21°C° 0 mm 3 mps 748 mmHg 78%
    09:00 +22°C° 0 mm 3 mps 748 mmHg 72%
    10:00 +25°C° 0 mm 3 mps 748 mmHg 66%
    11:00 +26°C° 0 mm 4 mps 748 mmHg 60%
    12:00 +27°C° 0 mm 4 mps 748 mmHg 58%
    13:00 +27°C° 0 mm 4 mps 748 mmHg 56%
    14:00 +28°C° 0 mm 4 mps 748 mmHg 54%
    15:00 +28°C° 0 mm 4 mps 747 mmHg 55%
    16:00 +27°C° 0 mm 4 mps 747 mmHg 57%
    17:00 +27°C° 0 mm 4 mps 747 mmHg 58%
    18:00 +26°C° 0 mm 4 mps 747 mmHg 64%
    19:00 +23°C° 0 mm 4 mps 747 mmHg 69%
    20:00 +21°C° 0 mm 3 mps 747 mmHg 75%
    21:00 +20°C° 0 mm 3 mps 747 mmHg 79%
    22:00 +19°C° 0 mm 3 mps 747 mmHg 83%
    23:00 +19°C° 0 mm 3 mps 747 mmHg 87%
    Show more